Location: Unspecified
(0.0000°N, 0.0000°E)
Time: 03:11:32
(UTC+00:00)

Vanguard 1 - Pass Details

Date: 10 December 2023
Orbit: 653 x 3826 km, 34.3° (Epoch: 22 February)

Event Time Altitude Azimuth Distance (km) Brightness Sun altitude
Rises 04:04:15 0° 271° (W) 7,081 - -24.8°
Reaches altitude 10° 04:12:10 10° 254° (WSW) 5,382 - -23.0°
Exits shadow 04:12:49 11° 252° (WSW) 5,248 13.3 -22.8°
Maximum altitude 04:20:24 17° 220° (SW) 3,975 13.0 -21.1°
Drops below altitude 10° 04:26:31 10° 183° (S) 3,790 13.3 -19.7°
Sets 04:30:36 0° 161° (SSE) 4,272 14.0 -18.8°
